Find Tianfu Dongpo 07

NORAD ID: 53444 Int'l Des: 2022-098 Owner: CGSTL Country: CN operational
LEOCIRCULARRETROGRADE

Current View

Loading 3D Globe...

About Tianfu Dongpo 07

Description loading...

Upcoming Passes

Passes for default location (London). Set your location on the main map for personalized predictions.

Altitude History

Loading altitude history...

Two-Line Element Set

1 53444U 22098A 26151.44616042 .00107563 00000-0 92814-3 0 9992
2 53444 97.5531 280.9376 0002534 70.2225 289.9309 15.68907577212122
Epoch: May 31, 2026 • Age: 8 hours

Current Status

Altitude 371.0 km
Velocity 7.69 km/s
Sub-Earth Point 59.96°N, 57.82°W
Launch Date Aug 10, 2022
Age 3.8 years
Type other

Technical Details

Classification Payload
Mass 42.00 kg
Dry Mass 42.00 kg
Total Mass 42.00 kg
Length 1.50 m
Diameter 1.00 m
Span 1.50 m
Shape Box
Manufacturer CGSTL
Bus Type JL-1
Phase Status In Orbit
Owner/State CGSTL/CN

Most Searched